Погода в Новороговской

Россия / Ростовская область     46°20′15″N   40°40′42″E
темп.,
°C
ветер,
м/с
пор.,
м/с
влажн.,
%
обл.,
%
осадки,
мм/ч
давл.,
гПа
погр.,
м
17 апреля, сб
сб1700:00+10ююз1194100 0.2 101920
03:00+10юз2297100 0.9 101978
06:00+9зсз3696100 1.8 1020306
09:00+11з5684100 2.1 1021704
12:00+13з4564100 0.1 10221311
15:00+14зюз4453100 0.2 10211500
18:00+13зюз3461100 0.0 1022135
21:00+9ююз3686100 0.0 1022150
18 апреля, вс
вс1800:00+7з22929 0.0 102222
03:00+8юв0085100 0.0 102115
06:00+8всв3582100 0.0 1020138
09:00+8в3786100 0.2 1020310
12:00+8всв4691100 0.5 1020253
15:00+9всв4793100 2.1 1018345
18:00+10вюв369395 0.0 1018360
21:00+10вюв3697100 0.2 1018190
19 апреля, пн
пн1900:00+10вюв2398100 0.1 101683
03:00+10всв2397100 0.3 101661
06:00+10юв2297100 0.3 101548
09:00+14ююз4688100 0.6 1015368
12:00+15юз5784100 0.1 1014584
15:00+14ююз1293100 3.5 1013161
18:00+13в2299100 6.4 101372
21:00+13св239999 8.8 101297
20 апреля, вт
вт2000:00+13всв4899100 0.3 1009247
03:00+13в51098100 0.5 1007280
06:00+13вюв71685100 0.1 1003329
09:00+17вюв91575100 0.2 1001474
12:00+19юз71277100 0.5 10041228
15:00+14зюз71372100 0.9 1008850
18:00+11ю61291100 1.9 1009615
21:00+11юз816801 1.9 1011957
21 апреля, ср
ср2100:00+9юз9157936 0.0 10141006
03:00+9юз7138294 0.0 1015850
06:00+8юз6138798 0.0 1017481
09:00+12зюз6774100 0.0 1019712
12:00+15зюз575862 0.0 10191668
15:00+14з2460100 0.1 10201005
18:00+14ю2266100 0.0 102045
21:00+12ююв2269100 0.0 102221